STARLINK-34572, 64720

Orbit data source: Space-Track

STARLINK-34572, 64720 is a payload satellite owned by SpaceX/Seattle (US) in LEO that was launched on Sat, 28 Jun 2025 UTC via an FALCON 9 launch vehicle from the Air Force Western Test Range (AFWTR). Payload-class satellites include a variety of spacecraft equipped with specific instruments for various scientific and technological missions. These include communications satellites like Starlink; space stations such as the ISS; scientific satellites like the Hubble; Earth observation satellites from companies like Planet Labs, Umbra, and HawkEye 360; GPS; miniature CubeSats for education and research; and military/defense satellites.

Loading next visibility...
Identifier
64720, 2025-142AA
Orbit
LEO
Country
Flag of USUS
Related business
Manufacturer
SpaceX/Seattle
Mission
Operational Commercial Communications
Bus & Motor
STARLINK V2MO, Unknown motor
Mass
575 kg wet, ~530 kg dry
Launch date (UTC)
2025-06-28 (1 year ago)
Launch vehicle
FALCON 9
Launch site
Air Force Western Test Range (AFWTR)
Object type
Payload
Rocket body
Debris
Shape & HBR
Box + 1 Pan, 17.7 m
Radar Cross Section
41.120 m², Large (>1 m²)

Expand to show TLE details & history
Last TLE update: 16 hours ago

TLE from 16 hours ago
0 STARLINK-34572
1 64720U 25142AA  26253.31178150  .00019745  00000-0  68950-3 0  9994
2 64720  69.9992 207.8288 0003561 270.2377  89.8390 15.29579516 67339
Epoch: 2026-09-10T07:28Z
TLE epoch observation values (Epoch: 2026-09-10T07:28:57.921Z)
Latitude
-0.00004°
Longitude
106.23615°
Altitude
479.52 km
Speed
7.626 km/s
True Right ascension
13h 51m 18s
True Declination
0° 00' 00"
Sunlit
Object was in daylight at epoch
Visualization orbit readout
Latitude
Unknown
Longitude
Unknown
Altitude
Unknown
Speed
Unknown
Apparent Right ascension
Unknown
Apparent Declination
Unknown
Sunlit
N/A
Visualization observer readout
Local Sidereal Time
15:26:25
Azimuth
Unknown
Elevation
Unknown
Doppler factor
Unknown
Orbital elements
Apogee altitude
477.429 km
Perigee altitude
472.548 km
Semi-major axis
6,853.125 km
Eccentricity
0.00036
Inclination
69.9992°
RAAN
207.8288°
Arg. of periapsis
270.2377°
True anomaly
89.87981°
Mean anomaly
89.839°
Eccentric anomaly
89.8594°
Mean motion
3.82569 °/min
Orbital period
94.1 mins
BSTAR
0.0006895
Loading maneuver chart data...
Computing Atmospheric mass density...
Loading historical data...
Loading historical data...
Loading historical data...
Loading historical data...
Loading historical data...
Loading historical data...
Loading historical data...

Documentation

Showing up to 5 results
|